Fullerton, CA

7:31 PM PDT on May 26, 2017 (GMT -0700)
Fullerton Municipal

Weather History for KFUL - March, 2014

Change the Weather History Date:

Thursday, March 20, 2014

  Actual Average Record
Temperature  
Mean Temperature 65 °F 60 °F  
Max Temperature 75 °F 70 °F 81 °F (2002)
Min Temperature 54 °F 50 °F 44 °F (2002)
Degree Days  
Heating Degree Days 0 5  
Month to date heating degree days 28 115  
Since 1 July heating degree days 526 1037  
Cooling Degree Days 0 0  
Month to date cooling degree days 34 8  
Year to date cooling degree days 54 17  
Growing Degree Days 14 (Base 50)    
Moisture  
Dew Point 53 °F    
Average Humidity 67    
Maximum Humidity 93    
Minimum Humidity 41    
Precipitation  
Precipitation 0.00 in 0.03 in 1.09 in (2011)
Month to date precipitation 0.68 1.78  
Year to date precipitation 3.01 8.06  
Since 1 July precipitation 4.32  
Snow  
Snow 0.00 in - - ()
Month to date snowfall 0.0  
Year to date snowfall 0.0  
Snow Depth 0.00 in    
Sea Level Pressure  
Sea Level Pressure 29.99 in    
Wind  
Wind Speed 3 mph (SW)    
Max Wind Speed 12 mph    
Max Gust Speed 16 mph    
Visibility 7 miles    
Events      
T = Trace of Precipitation, MM = Missing Value Source: NWS Daily Summary

Daily Weather History Graph

Daily Weather History Graph

Search for Another Location

Airport or City:

Trip Planner

Search our weather history database for the weather conditions in past years. The results will help you decide how hot, cold, wet, or windy it might be!

Date:

Astronomy

Mar. 20, 2014 Rise Set
Actual Time 6:55 AM PDT 7:03 PM PDT
Civil Twilight 6:30 AM PDT 7:28 PM PDT
Nautical Twilight 6:01 AM PDT 7:57 PM PDT
Astronomical Twilight 5:32 AM PDT 8:27 PM PDT
Moon 11:16 PM PDT (3/20) 9:16 AM PDT (3/20)
Length of Visible Light 12h 57m
Length of Day
12h 08m
Waning Gibbous, 83% of the Moon is Illuminated
Mar 20
Waning Gibbous
Mar 23
Last Quarter
Mar 30
New
Apr 7
First Quarter
Apr 15
Full

Hourly Weather History & Observations

Time (PDT) Temp. Dew Point Humidity Pressure Visibility Wind Dir Wind Speed Gust Speed Precip Events Conditions
12:53 AM 57.9 °F 54.0 °F 87% 30.05 in 8.0 mi Calm Calm - N/A   Clear
1:53 AM 57.0 °F 53.1 °F 87% 30.05 in 9.0 mi Calm Calm - N/A   Clear
2:53 AM 55.9 °F 53.1 °F 90% 30.03 in 7.0 mi Calm Calm - N/A   Clear
3:08 AM 55.9 °F 53.1 °F 90% 30.03 in 7.0 mi Calm Calm - N/A   Scattered Clouds
3:29 AM 55.9 °F 52.0 °F 87% 30.02 in 8.0 mi Calm Calm - N/A   Mostly Cloudy
3:53 AM 55.9 °F 52.0 °F 87% 30.01 in 7.0 mi Calm Calm - N/A   Mostly Cloudy
4:08 AM 55.0 °F 52.0 °F 89% 30.01 in 6.0 mi Calm Calm - N/A   Scattered Clouds
4:53 AM 55.0 °F 52.0 °F 89% 30.00 in 6.0 mi Calm Calm - N/A   Clear
5:41 AM 55.0 °F 51.1 °F 86% 30.00 in 7.0 mi Calm Calm - N/A   Scattered Clouds
5:46 AM 55.0 °F 52.0 °F 89% 30.01 in 7.0 mi Calm Calm - N/A   Mostly Cloudy
5:53 AM 55.9 °F 52.0 °F 87% 30.01 in 8.0 mi Calm Calm - N/A   Mostly Cloudy
6:09 AM 55.9 °F 53.1 °F 90% 30.02 in 7.0 mi Calm Calm - N/A   Overcast
6:37 AM 57.0 °F 55.0 °F 93% 30.02 in 2.5 mi Calm Calm - N/A   Overcast
6:53 AM 57.0 °F 55.0 °F 93% 30.02 in 3.0 mi Calm Calm - N/A   Overcast
7:08 AM 57.0 °F 55.0 °F 93% 30.02 in 2.5 mi Calm Calm - N/A   Overcast
7:25 AM 57.9 °F 55.0 °F 90% 30.03 in 2.5 mi Calm Calm - N/A   Overcast
7:50 AM 59.0 °F 55.4 °F 88% 30.02 in 3.0 mi Calm Calm - N/A   Overcast
7:53 AM 57.9 °F 55.0 °F 90% 30.02 in 3.0 mi Calm Calm - N/A   Overcast
8:53 AM 60.1 °F 55.0 °F 83% 30.02 in 3.0 mi Calm Calm - N/A   Haze
9:18 AM 60.1 °F 55.0 °F 83% 30.02 in 3.0 mi Calm Calm - N/A   Haze
9:53 AM 63.0 °F 54.0 °F 72% 30.02 in 4.0 mi Calm Calm - N/A   Haze
10:53 AM 68.0 °F 51.1 °F 55% 30.01 in 7.0 mi Calm Calm - N/A   Clear
11:53 AM 73.0 °F 48.0 °F 41% 29.99 in 8.0 mi Variable 4.6 mph - N/A   Clear
12:53 PM 73.9 °F 55.0 °F 52% 29.97 in 6.0 mi SSW 10.4 mph - N/A   Haze
1:53 PM 73.0 °F 53.1 °F 49% 29.95 in 9.0 mi Variable 6.9 mph - N/A   Clear
2:53 PM 73.9 °F 48.9 °F 41% 29.93 in 10.0 mi South 8.1 mph - N/A   Clear
3:53 PM 71.1 °F 51.1 °F 49% 29.92 in 10.0 mi SSW 10.4 mph - N/A   Clear
4:53 PM 71.1 °F 52.0 °F 51% 29.91 in 10.0 mi Variable 6.9 mph - N/A   Clear
5:53 PM 68.0 °F 52.0 °F 56% 29.91 in 10.0 mi WNW 5.8 mph - N/A   Clear
6:53 PM 64.9 °F 52.0 °F 63% 29.92 in 10.0 mi Variable 4.6 mph - N/A   Clear
7:53 PM 62.1 °F 52.0 °F 70% 29.93 in 10.0 mi West 5.8 mph - N/A   Clear
8:53 PM 61.0 °F 52.0 °F 72% 29.95 in 10.0 mi Calm Calm - N/A   Clear
9:53 PM 60.1 °F 52.0 °F 75% 29.96 in 10.0 mi West 3.5 mph - N/A   Clear
10:53 PM 59.0 °F 52.0 °F 78% 29.97 in 10.0 mi Calm Calm - N/A   Clear
11:53 PM 57.9 °F 51.1 °F 78% 29.96 in 10.0 mi Calm Calm - N/A   Clear